Location: Unspecified
(0.0000°N, 0.0000°E)
Time: 05:41:09
(UTC+00:00)

AAUSAT CUBESAT 2 - Pass Details

Date: 20 July 2020
Orbit: 574 x 589 km, 97.5° (Epoch: 13 August)

Event Time Altitude Azimuth Distance (km) Brightness Sun altitude
Rises 18:40:59 0° 205° (SSW) 2,786 ? -8.1°
Reaches altitude 10° 18:44:33 10° 238° (WSW) 1,887 ? -8.9°
Maximum altitude 18:45:56 12° 258° (WSW) 1,789 ? -9.2°
Drops below altitude 10° 18:47:19 10° 278° (W) 1,886 ? -9.6°
Sets 18:50:53 0° 312° (NW) 2,785 ? -10.4°
